Вернуться в каталог

KSLV-II R/B

АктивенSSO
NORAD 52896·ROCKET BODY·🇰🇷 South Korea

Запущен Jun 21, 2022 с Naro Space Center

Loading…

Ближайшие Пролёты (ближайшие 24 часа)

TLE

СвежийSource: Space-Track

Эпоха: Sep 14, 2026, 16:21 UTC

1 52896U 22065C   26257.68147401  .00000255  00000-0  56368-4 0  9992
2 52896  98.2763  58.0094 0015372 272.1762  87.7681 14.65431170226254

Отслеживайте KSLV-II R/B в реальном времени с AllMySat

Download on the App Store